This is the latest recevied weather packets stored in our database for station/object KL1SF-7. If no packets are shown the sender has not sent any weather packets the latest 10 day(s).
| Time | Temp. | Humidity | Pressure | Rain* | Wind** | Luminosity | Snow |
|---|---|---|---|---|---|---|---|
| 1777884819 | 10° C | 42% | 1015 hPa | 0 mm | - | - | - |
| 1777884208 | 10° C | 41% | 1015 hPa | 0 mm | - | - | - |
| 1777883625 | 10° C | 41% | 1015.3 hPa | 0 mm | - | - | - |
| 1777883006 | 10.56° C | 39% | 1015.3 hPa | 0 mm | - | - | - |
| 1777882416 | 10.56° C | 38% | 1015.3 hPa | 0 mm | - | - | - |
| 1777881827 | 10.56° C | 37% | 1014.9 hPa | 0 mm | - | - | - |
| 1777881208 | 11.11° C | 35% | 1014.8 hPa | 0 mm | - | - | - |
| 1777880621 | 10.56° C | 33% | 1014.8 hPa | 0 mm | - | - | - |
| 1777880017 | 10.56° C | 31% | 1015.1 hPa | 0 mm | - | - | - |
| 1777879418 | 11.11° C | 29% | 1015 hPa | 0 mm | - | - | - |
| 1777878808 | 11.11° C | 29% | 1015 hPa | 0 mm | - | - | - |
| 1777878219 | 11.11° C | 28% | 1014.3 hPa | 0 mm | - | - | - |
| 1777877620 | 11.11° C | 28% | 1014.6 hPa | 0 mm | - | - | - |
| 1777877010 | 11.67° C | 28% | 1014.6 hPa | 0 mm | - | - | - |
| 1777876427 | 11.67° C | 27% | 1014.7 hPa | 0 mm | - | - | - |
| 1777875807 | 11.67° C | 28% | 1015.1 hPa | 0 mm | - | - | - |
| 1777875217 | 12.22° C | 27% | 1015.1 hPa | 0 mm | - | - | - |
| 1777874630 | 12.22° C | 27% | 1014.8 hPa | 0 mm | - | - | - |
| 1777874010 | 12.22° C | 27% | 1014.9 hPa | 0 mm | - | - | - |
| 1777873420 | 12.78° C | 26% | 1014.9 hPa | 0 mm | - | - | - |
| 1777872817 | 12.78° C | 26% | 1015 hPa | 0 mm | - | - | - |
| 1777872218 | 12.78° C | 25% | 1015.7 hPa | 0 mm | - | - | - |
| 1777871610 | 13.33° C | 25% | 1015.7 hPa | 0 mm | - | - | - |
| 1777871023 | 13.33° C | 25% | 1015.6 hPa | 0 mm | - | - | - |
| 1777870404 | 13.33° C | 25% | 1015.7 hPa | 0 mm | - | - | - |
* Rain since midnight (hover to see other rain measurements)
** Current wind speed in m/s (hover to see current wind gust speed)